CZ-6A DEB

Satellite information

Favourite Embed

Satellite Type and Status

DEBRISIN ORBIT

Key statistics

Satellite CZ-6A DEB at a glance.

Uptime

450

Days in orbit

Revolutions

≈ 15.1

Per day

Orbit

LEO

Low Earth Orbit

Inclination

89.2

Latest

Satellite identification and parameters

Extended collection of information and parameters for CZ-6A DEB.

Object identification

Identified? True

Debris? True

Object name: CZ-6A DEB

International designator: 2024-140FM

Object number (NORAD): 60786

Object ID (CCSDS): 60786

Country: PEOPLES REPUBLIC OF CHINA (PRC)

Current information (Y/N): Y

RCS size: MEDIUM

Orbital parameters

Period: 95.521 minutes

Inclination: 89.2399 deg

SMA: 6921.918 km

Apoapsis: 638.454 km

Periapsis: 449.112 km

RAAN: 309.7365 deg

Eccentricy: 0.01367698

Argument of periapsis: 174.0996 deg

Mean anomaly: 186.1896 deg

Mean motion: 15.07520093 rev/day

Mean motion (dot): 0.00043688 rev/day2

B* drag term: 0.0023075303 1/REarth

Two-line elements (TLE)

Creation date: Oct. 30, 2025, 3:32 a.m.

Reference frame: TEME

Reference center: EARTH

Epoch: Oct. 29, 2025, 6:44 p.m. UTC

TLE line 0: 0 CZ-6A DEB

TLE line 1: 1 60786U 24140FM 25302.78114953 .00043688 00000-0 23075-2 0 9996

TLE line 2: 2 60786 89.2399 309.7365 0136770 174.0996 186.1896 15.07520093 65756

Live tracking on map

Real-time ground track for satellite CZ-6A DEB.

In-orbit conjunctions

A list of the most updated potential collisions computed for object CZ-6A DEB.

Target Orbit TCA Probability of collision Miss distance Type
ALOS SSO 2025-08-07 09:13:59 0.0001799362 442.0 (m) PAYLOAD
NOAA 16 DEB SSO 2025-02-02 17:17:51 0.0001032871 413.0 (m) DEBRIS
SL-14 R/B LEO 2025-01-05 23:14:54 0.0001624026 109.0 (m) ROCKET BODY
CZ-6A DEB SSO 2024-11-15 17:37:16 0.0001531338 120.0 (m) DEBRIS
FENGYUN 1C DEB SSO 2024-09-18 06:15:40 0.0001404285 921.0 (m) DEBRIS

Associated space launch

18 Low Earth Orbit communication satellites with Ku, Q and V band payloads for the G60 constellation operated by Shanghai Spacecom Satellite Technology (SSST) with funding backed by the Shanghai local government. Initial constellation will consist of 1296 satellites by 2027 with long term plans to expand it to 12000 satellites.

CZ-6A DEB was lifted into orbit during the mission ‘Long March 6A | G60 Polar Group 01’, on board a Long March 6A space rocket.

The launch took place on Aug. 6, 2024, 6:42 a.m. from Launch Complex 9A.

For more information about the launch, click the button.

Launch to space Long March 6A | G60 Polar Group 01
Long March 6A | G60 Polar Group 01

Agency: N/A

Status: Launch Successful

Launch date: Aug. 6, 2024, 6:42 a.m. UTC

Rocket: Long March 6A

Launch pad: Launch Complex 9A

Location: Taiyuan Satellite Launch Center, People's Republic of China

...

Latest news about this satellite

News about space launch
Brightness of first Chinese broadband constellation satellites alarms astronomers

The first satellites of a Chinese broadband constellation are significantly brighter than those of Western systems, posing a new challenge for astronomers.

News about space launch
Chinese rocket stage breaks up into cloud of more than 700 pieces of space debris

HELSINKI — A Chinese Long March 6A rocket’s upper stage has fragmented into a cloud of over 700 pieces of space debris, adding to concerns about long-term orbital safety. China […]

News about space launch
China's Thousand Sails Megaconstellation Kicks Off with Dangerous Debris Field

China's Thousand Sails Megaconstellation Kicks Off with Dangerous Debris Field


Newsletter sign-up

Weekly statistics, charts and insights to help you stay on top of the space industry.